Dewpoint
28 27 27 24 24 30 23 26 34 40 44 48 47 46 46 46 47 47 48 50 53 54 56 57 59 60 62 63 65 66 67 66 66 67 67 68 68 67 67 68 69 71 69 68
28 33 28 26 27 27 41 45 45 44 42 46 45 44 44 45 46 45 46 47 49 52 53 55 56 59 60 60 61 61 62 63 65 65 64 65 68 67 66 67 68 68 70 70
28 30 34 32 28 28 39 45 45 42 43 45 43 43 43 43 45 45 46 46 48 49 51 53 54 54 55 58 58 59 59 60 61 61 61 61 62 62 65 66 65 66 67 69
26 27 27 32 31 35 43 44 45 45 44 44 43 43 42 43 44 45 45 47 47 48 50 52 54 55 56 56 56 57 56 57 59 60 60 61 61 61 61 62 62 63 63 65
24 26 27 28 28 26 34 41 45 44 44 44 43 42 42 44 44 44 44 47 46 46 48 50 51 51 50 50 50 50 51 52 54 55 54 54 55 57 59 60 61 62 63 64
30 26 19 26 30 31 32 34 45 44 43 42 41 39 41 43 43 45 45 45 45 46 47 48 48 47 47 48 48 48 49 49 50 50 52 51 51 54 56 57 59 61 62 63
30 27 31 35 36 37 29 30 44 44 43 42 40 40 41 43 43 44 44 45 46 46 46 47 46 47 46 46 46 47 47 46 46 47 47 47 50 49 51 52 54 56 58 60
28 25 24 37 36 28 32 39 41 43 43 42 40 41 42 41 42 43 44 45 45 45 45 45 46 46 45 45 45 44 44 44 44 43 43 43 44 45 47 46 46 47 46 52
33 32 36 40 40 40 38 39 40 41 41 41 41 41 41 40 42 43 44 44 45 46 45 45 45 45 43 43 43 42 42 42 42 42 41 41 42 42 43 44 44 43 43 43
34 38 37 39 39 38 38 39 42 43 43 44 43 41 40 39 41 41 42 43 44 43 43 44 44 44 43 43 42 41 41 41 41 40 41 40 41 42 42 42 42 42 43 42
32 34 36 39 39 38 39 40 39 41 41 42 41 39 39 41 41 41 41 42 43 42 43 43 43 42 42 42 41 40 40 40 40 40 40 40 40 41 41 41 42 41 41 41
35 34 35 34 39 41 39 38 39 37 37 39 40 39 40 41 41 41 41 42 42 42 43 42 43 42 42 42 40 39 39 39 39 39 39 40 40 40 42 42 42 41 41 41
37 40 41 41 43 43 39 37 39 36 38 39 39 39 40 41 41 42 42 41 41 42 42 42 41 40 42 41 41 39 38 38 39 39 39 39 39 39 39 41 42 41 40 40
43 42 40 43 41 44 45 44 42 38 38 39 40 41 40 40 43 42 42 41 42 42 41 40 40 39 41 41 40 39 37 41 38 38 39 39 39 40 40 40 39 39 40 40
41 40 38 41 43 43 43 44 43 39 39 39 40 41 40 40 42 41 42 41 42 41 41 40 40 40 41 40 38 37 37 38 38 37 38 39 39 39 39 39 38 37 37 38
41 41 42 41 41 43 43 43 43 42 41 40 40 41 41 40 41 42 41 42 41 40 40 40 40 41 40 39 38 37 37 39 37 35 36 36 36 36 36 36 35 35 35 35
38 38 39 40 43 43 43 45 44 45 44 43 43 43 43 43 41 42 41 41 41 40 40 40 39 41 40 38 38 38 37 36 37 35 35 35 36 35 35 35 35 34 34 35
39 39 42 43 43 44 44 46 46 47 48 50 50 46 43 42 41 41 41 41 41 39 40 40 41 41 40 38 38 38 37 35 35 35 36 35 35 35 35 35 34 34 33 34
42 43 44 44 44 45 46 45 47 47 48 49 50 49 48 43 41 41 41 40 39 39 39 41 45 43 39 40 40 38 37 36 36 36 36 37 36 36 35 34 34 34 34 33
44 45 45 45 46 48 48 48 46 47 47 48 50 50 48 49 48 46 44 41 39 40 44 42 44 41 39 40 45 38 38 36 36 36 36 36 35 35 35 36 34 34 34 32
44 43 43 43 44 46 49 48 48 47 46 47 48 48 48 49 49 49 47 44 44 44 43 45 46 42 40 40 44 39 38 37 37 37 36 36 35 35 34 35 34 33 33 32
40 40 39 39 40 42 42 42 42 42 43 43 45 47 47 47 47 47 49 49 49 48 47 47 46 45 41 45 41 39 38 37 37 37 36 36 35 34 34 34 34 33 33 32
37 39 41 41 40 39 39 40 40 41 41 41 41 41 43 45 45 46 47 48 49 48 47 47 47 47 47 45 41 39 38 38 38 37 37 36 35 34 34 34 34 34 34 33
39 40 40 40 39 39 37 39 40 41 41 41 41 42 41 42 43 45 45 48 49 48 48 48 49 49 50 46 41 40 39 38 38 37 37 38 35 34 33 33 34 35 35 34
41 40 39 38 37 37 37 39 39 40 40 41 45 44 43 42 44 44 46 47 48 48 48 49 49 49 48 44 42 41 40 39 39 38 37 37 36 34 33 33 34 36 35 35
40 39 39 38 37 38 39 39 38 39 40 44 46 47 47 43 43 44 46 48 49 48 46 44 45 46 44 42 41 41 40 39 39 38 38 37 36 35 34 34 35 37 36 36
39 39 38 37 38 37 38 39 38 39 40 41 44 46 46 46 44 44 44 44 44 44 44 46 44 45 43 42 41 41 40 40 39 39 37 36 35 35 34 34 37 38 37 37
Lifted_Index
1 1 1 2 2 1 1 1 1 1 0 -0 -1 -1 -1 -1 -1 -1 -1 -1 -1 -1 -2 -2 -2 -2 -2 -2 -1 -0 -0 0 0 0 -0 -0 -1 -1 -2 -2 -2 -3 -4 -4
1 1 1 2 2 1 1 1 1 1 0 -0 -0 -0 -1 -1 -1 -1 -1 -1 -1 -1 -1 -2 -2 -2 -2 -1 -1 -0 -0 0 1 1 0 -0 -0 -1 -1 -1 -1 -2 -3 -4
1 1 1 1 2 1 0 0 0 1 0 0 -0 -0 -0 -0 -0 -0 -0 0 0 -0 -1 -1 -1 -1 -1 -1 -1 -0 -0 -0 0 0 0 0 0 0 -0 -0 -0 -1 -2 -2
2 1 1 1 2 2 1 0 0 0 0 0 -0 -0 -0 0 0 0 0 1 1 1 1 1 1 1 0 0 0 -0 -0 -1 -0 -0 0 0 0 -0 0 1 1 0 -0 -1
2 1 1 2 2 2 1 0 0 -0 -0 -0 -0 -0 0 0 0 0 1 1 2 3 4 4 4 4 3 3 3 2 1 1 1 0 0 -0 -1 -0 0 1 1 1 0 -0
2 2 2 2 2 2 1 1 -0 -1 -1 -0 -0 -0 0 1 1 1 1 2 4 5 6 6 6 6 6 6 6 5 5 5 4 4 2 2 1 1 1 1 0 0 0 0
3 3 2 2 2 2 2 1 -0 -1 -1 -1 -0 -0 0 1 2 2 2 4 5 6 7 7 7 8 8 8 8 8 9 9 9 8 7 6 6 5 4 2 1 1 1 2
3 3 2 2 2 2 2 2 0 -1 -1 -1 -1 -1 -0 1 2 2 3 4 5 6 7 8 9 9 10 10 11 11 11 11 12 11 11 11 10 9 8 7 5 5 5 6
3 2 2 2 2 2 2 2 1 0 -1 -1 -1 -1 -0 1 1 2 3 4 5 6 6 7 9 10 11 12 12 13 13 13 13 13 13 13 13 12 12 11 10 10 10 9
2 2 2 2 2 2 2 2 2 1 0 -0 -0 0 1 1 2 2 3 4 5 5 6 8 9 11 11 12 13 14 14 14 14 14 14 14 14 14 14 13 13 13 12 12
3 3 3 3 2 2 2 2 2 2 1 1 1 1 2 2 2 3 3 4 5 6 8 9 10 11 12 13 14 14 14 14 14 15 15 15 15 15 14 14 14 14 14 14
3 3 3 3 3 3 3 3 2 2 2 2 2 2 2 2 3 3 4 5 6 7 8 10 11 12 13 14 14 15 15 15 15 15 15 15 15 15 15 15 15 15 15 15
3 3 3 3 3 3 2 2 2 2 2 2 2 2 2 3 3 4 4 5 6 7 8 9 10 11 12 13 14 14 15 15 15 15 15 15 14 14 14 14 15 15 16 16
3 3 3 3 3 3 2 2 1 1 1 1 2 2 2 2 3 3 4 5 6 7 8 8 10 11 12 13 13 14 14 15 15 14 14 14 14 14 14 13 13 14 15 15
3 2 2 3 3 3 2 2 1 1 1 1 1 1 2 2 3 3 3 4 5 6 7 8 9 11 11 12 13 13 14 14 14 14 14 14 14 14 13 13 13 13 14 14
2 2 2 2 3 2 2 1 1 1 1 1 1 1 2 2 2 3 3 3 4 4 5 6 8 9 10 11 11 12 13 14 14 14 14 14 14 13 13 13 13 13 13 13
2 2 2 2 2 2 2 1 1 1 0 0 1 1 1 2 2 2 2 3 3 3 4 5 6 7 8 9 10 11 12 12 13 13 13 13 13 13 13 13 13 13 13 13
2 2 1 1 2 2 1 1 1 1 0 0 1 1 1 1 1 2 2 2 2 2 3 3 4 5 6 8 9 10 11 12 12 12 12 12 13 13 13 13 13 13 12 13
1 1 1 1 1 1 1 1 1 1 1 1 0 1 1 1 1 1 1 2 2 2 2 3 3 4 5 7 8 9 10 11 11 11 12 12 12 13 13 13 13 13 13 13
1 1 1 1 1 1 1 1 1 1 1 1 1 1 1 1 1 1 1 1 1 1 2 2 3 4 5 6 8 9 9 10 10 10 11 11 11 12 13 14 14 14 13 13
1 1 1 2 2 1 1 1 1 1 1 1 1 1 1 1 1 1 1 1 1 1 1 2 2 3 4 6 7 8 8 9 9 9 10 10 11 11 12 13 14 14 14 14
2 2 2 3 3 2 2 2 2 2 2 2 1 1 1 1 1 1 1 1 1 1 1 1 2 3 4 5 6 7 8 8 8 9 9 10 10 10 11 12 14 14 14 14
3 3 3 3 3 3 3 3 3 3 3 2 2 2 1 1 1 1 1 1 1 1 1 1 2 3 4 5 5 6 7 7 7 8 9 9 9 9 10 11 12 14 14 14
4 4 4 4 4 4 4 4 4 3 3 3 3 2 2 1 1 1 1 1 1 1 1 1 1 2 3 4 5 6 6 6 7 8 8 8 8 8 9 10 11 13 13 13
4 4 4 4 4 4 4 4 3 3 2 2 2 2 2 2 1 1 1 1 1 1 1 1 2 3 3 4 4 5 6 6 7 7 8 8 8 8 8 10 11 12 13 13
4 4 4 4 4 4 4 3 3 3 2 1 1 2 2 1 1 1 0 0 0 0 1 1 2 2 3 3 4 5 5 6 6 7 7 7 7 8 8 9 10 12 13 13
5 5 5 5 4 4 3 3 3 2 2 1 1 1 1 1 1 0 0 -0 -0 0 1 1 1 2 2 3 4 5 5 6 6 6 6 7 7 7 8 9 10 11 12 13